This is the latest recevied weather packets stored in our database for station/object IT9KVB-11. If no packets are shown the sender has not sent any weather packets the latest 10 day(s).
| Time | Temp. | Humidity | Pressure | Rain* | Wind** | Luminosity | Snow |
|---|---|---|---|---|---|---|---|
| 1777695946 | 7.78° C | 76% | 926 hPa | 0 mm | 19.22 m/s, 0° | - | - |
| 1777695030 | 7.78° C | 76% | 926 hPa | 0 mm | 19.22 m/s, 0° | - | - |
| 1777694114 | 7.78° C | 76% | 926 hPa | 0 mm | 19.22 m/s, 0° | - | - |
| 1777693198 | 7.78° C | 76% | 926 hPa | 0 mm | 19.22 m/s, 0° | - | - |
| 1777692282 | 7.78° C | 76% | 926 hPa | 0 mm | 19.22 m/s, 0° | - | - |
| 1777691366 | 7.78° C | 76% | 926 hPa | 0 mm | 19.22 m/s, 0° | - | - |
| 1777690450 | 7.78° C | 76% | 926 hPa | 0 mm | 19.22 m/s, 0° | - | - |
| 1777689534 | 7.78° C | 76% | 926 hPa | 0 mm | 19.22 m/s, 0° | - | - |
| 1777688618 | 7.78° C | 76% | 926 hPa | 0 mm | 19.22 m/s, 0° | - | - |
| 1777687702 | 7.78° C | 76% | 926 hPa | 0 mm | 19.22 m/s, 0° | - | - |
| 1777670299 | 7.22° C | 85% | 926 hPa | 0 mm | 9.83 m/s, 0° | - | - |
| 1777667551 | 7.78° C | 85% | 925 hPa | 0 mm | 0 m/s | - | - |
| 1777666635 | 7.78° C | 83% | 925 hPa | 0 mm | 0 m/s | - | - |
| 1777665719 | 8.33° C | 83% | 925 hPa | 0 mm | 3.13 m/s, 0° | - | - |
| 1777664803 | 7.78° C | 81% | 925 hPa | 0 mm | 4.02 m/s, 0° | - | - |
| 1777663887 | 8.33° C | 81% | 925 hPa | 0 mm | 16.09 m/s, 0° | - | - |
| 1777662971 | 8.33° C | 78% | 925 hPa | 0 mm | 38.89 m/s, 0° | - | - |
| 1777660223 | 8.33° C | 80% | 924 hPa | 0 mm | 13.86 m/s, 0° | - | - |
| 1777659307 | 8.89° C | 79% | 924 hPa | 0 mm | 39.79 m/s, 0° | - | - |
| 1777654727 | 11.67° C | 58% | 924 hPa | 0 mm | 50.07 m/s, 0° | - | - |
| 1777652894 | 15° C | 46% | 924 hPa | 0 mm | 38.89 m/s, 0° | - | - |
| 1777651978 | 15° C | 52% | 924 hPa | 0 mm | 50.07 m/s, 0° | - | - |
| 1777651062 | 15° C | 49% | 924 hPa | 0 mm | 60.8 m/s, 0° | - | - |
| 1777650146 | 14.44° C | 54% | 924 hPa | 0 mm | 51.86 m/s, 0° | - | - |
| 1777649230 | 14.44° C | 50% | 924 hPa | 0 mm | 51.86 m/s, 0° | - | - |
* Rain latest hour (hover to see other rain measurements)
** Current wind speed in m/s (hover to see current wind gust speed)